WGS F7 (USA 263)

Last updated on Tue Sep 22 2026 00:03:13 GMT+0000 (Coordinated Universal Time)

1 40746U 15036A 26264.37310529 .00000014 00000+0 00000+0 0 9999 2 40746 0.0135 166.2148 0000432 310.9803 192.3998 1.00271511 40837
UTC large
Height (km)
Speed (km/s)
/
Latitude / Longitude
Inclination (degrees)
Orbital Period (minutes)
Azimuth
Elevation
Range (km)
Doppler Factor

Next 0 passes for location: London (51.5072 / 0.1276)

No passes found over London.
WGS F7 (USA 263)